Location: Laan Hart van Zuid
(52.2563°N, 6.7904°E)
Time: 10:40:31
(UTC+02:00)

ISS - Pass Details

Date: 20 May 2024
Orbit: 411 x 419 km, 51.6° (Epoch: 29 May)

Event Time Altitude Azimuth Distance (km) Brightness Sun altitude
Rises 23:15:20 0° 281° (W) 2,373 0.8 -11.9°
Reaches altitude 10° 23:17:29 10° 276° (W) 1,505 -0.4 -12.0°
Maximum altitude 23:20:45 48° 201° (SSW) 555 -3.4 -12.3°
Enters shadow 23:22:39 22° 134° (SE) 983 -2.5 -12.4°
